GFSFLT2_850_temp_051.txt.gz
Temp
2 2 2 2 2 3 2 0 0 1 2 2 2 1 1 1 0 0 0 -0 -1 -0 -0 -0 -0 -0 -0
2 2 2 2 2 1 1 1 1 0 0 0 -0 -1 -0 -0 -0 -1 -1 -1 -1 -1 -1 -1 -1 -2 -2
2 2 2 2 2 2 1 1 0 0 -1 -0 0 -0 -1 -1 -1 -2 -2 -2 -2 -2 -2 -2 -2 -3 -3
1 -0 -0 0 1 0 0 0 1 0 -0 -0 -0 -0 -0 -1 -1 -1 -2 -2 -2 -3 -3 -2 -2 -4 -4
-1 -1 -1 -1 -1 -1 -1 -2 -1 -1 -1 -1 -1 -1 -2 -2 -2 -2 -2 -2 -3 -3 -3 -3 -3 -3 -4
-1 -2 -2 -2 -2 -2 -2 -2 -3 -3 -3 -2 -3 -2 -2 -2 -2 -2 -2 -2 -2 -2 -2 -3 -3 -5 -5
-2 -2 -2 -3 -3 -3 -4 -4 -4 -4 -4 -3 -3 -3 -3 -3 -3 -2 -2 -3 -3 -3 -3 -3 -3 -4 -4
-3 -3 -3 -4 -4 -4 -5 -5 -5 -5 -5 -4 -4 -4 -4 -3 -3 -2 -2 -3 -3 -3 -3 -3 -3 -4 -3
-4 -4 -5 -5 -5 -5 -6 -6 -5 -5 -5 -5 -5 -4 -3 -3 -3 -3 -3 -3 -3 -3 -3 -3 -3 -3 -3
-5 -5 -5 -5 -5 -6 -6 -6 -6 -6 -6 -6 -5 -5 -4 -4 -4 -4 -3 -4 -3 -3 -4 -4 -4 -4 -3
-5 -5 -5 -5 -5 -6 -6 -6 -6 -7 -6 -6 -6 -6 -6 -5 -3 -3 -3 -4 -5 -5 -5 -5 -5 -5 -4
-5 -5 -5 -5 -6 -6 -6 -6 -6 -6 -7 -7 -6 -7 -7 -7 -5 -4 -4 -4 -4 -4 -5 -5 -5 -5 -5
-5 -6 -6 -6 -6 -6 -6 -6 -6 -6 -6 -7 -7 -7 -7 -7 -6 -5 -5 -4 -4 -5 -5 -5 -5 -5 -5
-5 -6 -6 -6 -5 -6 -6 -6 -5 -6 -7 -7 -8 -8 -7 -7 -7 -5 -6 -6 -5 -5 -6 -5 -5 -5 -5
-6 -6 -6 -6 -6 -6 -6 -6 -6 -5 -6 -7 -8 -8 -7 -7 -6 -6 -5 -6 -6 -6 -6 -6 -5 -5 -5
-6 -6 -6 -6 -6 -6 -7 -7 -6 -6 -6 -7 -7 -8 -7 -6 -6 -6 -6 -6 -6 -6 -7 -7 -5 -5 -5
-6 -6 -7 -6 -7 -7 -7 -7 -7 -7 -7 -7 -8 -8 -9 -9 -6 -7 -7 -6 -7 -6 -7 -7 -6 -5 -6

GFSFLT2_850_temp_054.txt.gz
Temp
3 2 2 2 2 2 2 3 2 1 2 2 2 2 2 2 2 2 2 2 1 0 0 1 1 1 0
2 2 2 2 2 3 2 2 2 1 1 2 2 2 1 1 1 1 1 1 1 0 0 -0 -0 -0 -0
1 1 1 1 2 2 2 2 2 1 1 1 1 1 1 1 1 1 1 0 0 0 -0 -1 -1 -1 -2
0 0 -1 0 1 1 0 1 1 1 1 1 1 0 0 0 0 -0 -1 -1 -1 -1 -1 -2 -2 -2 -2
-2 -2 -1 -2 -1 -1 -1 -0 -0 -0 0 0 -0 -0 -1 -1 -1 -1 -2 -2 -2 -2 -2 -2 -2 -2 -2
-1 -2 -2 -2 -2 -2 -2 -2 -2 -1 -1 -1 -1 -1 -1 -1 -1 -1 -2 -2 -2 -2 -2 -2 -2 -2 -3
-2 -2 -3 -2 -2 -3 -3 -4 -5 -4 -3 -2 -3 -3 -2 -2 -2 -2 -2 -2 -2 -2 -2 -3 -3 -3 -5
-2 -3 -3 -3 -4 -4 -4 -4 -5 -5 -4 -4 -4 -4 -3 -3 -2 -2 -2 -2 -2 -2 -2 -3 -3 -4 -5
-3 -3 -3 -3 -4 -5 -5 -5 -6 -6 -4 -5 -5 -3 -3 -3 -3 -3 -3 -3 -2 -2 -3 -3 -4 -5 -5
-4 -4 -4 -4 -5 -5 -5 -5 -5 -6 -5 -5 -5 -5 -4 -3 -3 -3 -3 -3 -3 -3 -3 -3 -3 -4 -4
-4 -5 -5 -5 -5 -5 -5 -5 -5 -6 -5 -6 -5 -5 -5 -4 -3 -4 -3 -4 -4 -4 -4 -4 -4 -4 -4
-5 -5 -5 -5 -5 -5 -5 -5 -5 -6 -6 -6 -6 -6 -6 -5 -4 -5 -5 -4 -4 -4 -4 -4 -4 -4 -4
-5 -5 -5 -5 -5 -5 -5 -5 -5 -6 -6 -6 -6 -6 -6 -6 -5 -5 -6 -4 -5 -5 -5 -5 -5 -5 -5
-5 -5 -5 -5 -5 -5 -5 -5 -5 -6 -6 -6 -7 -7 -6 -6 -6 -5 -5 -6 -5 -6 -6 -5 -5 -5 -5
-5 -5 -5 -5 -6 -6 -6 -6 -6 -5 -6 -7 -7 -7 -7 -7 -6 -5 -5 -6 -6 -6 -7 -6 -5 -5 -5
-5 -5 -5 -6 -6 -6 -6 -6 -6 -6 -6 -7 -7 -8 -7 -6 -6 -5 -6 -6 -6 -6 -6 -6 -5 -5 -6
-5 -5 -6 -6 -6 -6 -6 -6 -6 -6 -6 -7 -7 -8 -8 -9 -8 -7 -7 -6 -7 -7 -7 -7 -7 -5 -6

GFSFLT2_850_temp_060.txt.gz
Temp
5 4 3 3 3 3 3 3 3 3 2 -0 1 2 2 3 3 3 3 4 4 3 3 3 2 2 2
3 2 2 3 3 3 3 2 2 2 2 0 0 0 1 2 2 2 2 2 2 2 2 2 1 1 1
1 0 2 2 2 2 2 2 2 2 1 1 1 1 1 1 2 2 2 2 1 1 1 1 1 1 1
-0 -1 -1 1 1 1 1 1 1 0 0 0 1 1 1 1 1 1 1 1 1 1 1 1 1 1 1
-1 -1 -1 -2 0 1 1 1 -0 0 0 -1 0 0 -0 0 1 0 -0 -0 0 0 -0 -0 -0 -1 -1
0 -0 -1 -1 -1 -0 0 0 -1 -1 -0 -1 -0 -1 -1 -1 -1 -1 -0 -0 -1 -1 -1 -1 -1 -1 -1
0 -0 -1 -0 -1 -1 -1 -1 -1 -1 -1 -1 -1 -1 -1 -1 -1 -1 -1 -1 -1 -1 -1 -1 -1 -1 -1
-0 -1 -1 -1 -1 -1 -1 -1 -2 -2 -2 -2 -2 -1 -1 -1 -1 -2 -2 -2 -2 -2 -2 -2 -2 -2 -2
-1 -1 -1 -2 -2 -2 -1 -2 -2 -3 -2 -3 -2 -1 -1 -2 -2 -2 -2 -2 -2 -2 -2 -2 -2 -2 -2
-2 -2 -2 -2 -2 -1 -1 -2 -3 -3 -3 -3 -3 -3 -2 -2 -2 -2 -2 -2 -2 -3 -2 -2 -2 -2 -2
-2 -2 -2 -2 -2 -2 -3 -3 -4 -4 -4 -4 -4 -4 -4 -3 -2 -3 -2 -3 -3 -3 -3 -3 -3 -3 -3
-2 -2 -2 -3 -3 -3 -4 -4 -4 -4 -4 -4 -4 -4 -5 -3 -3 -3 -3 -4 -4 -3 -4 -3 -3 -3 -3
-2 -3 -3 -3 -3 -3 -3 -3 -4 -4 -4 -4 -4 -5 -5 -5 -4 -3 -3 -3 -4 -4 -5 -4 -4 -4 -4
-3 -3 -3 -3 -4 -4 -4 -4 -3 -4 -4 -5 -5 -5 -5 -5 -6 -4 -4 -5 -4 -5 -6 -5 -5 -4 -4
-3 -3 -4 -4 -3 -4 -4 -4 -4 -4 -4 -5 -6 -6 -6 -6 -6 -5 -5 -5 -5 -6 -6 -5 -5 -4 -4
-3 -4 -4 -4 -4 -5 -5 -5 -5 -5 -5 -6 -6 -7 -7 -6 -6 -6 -6 -6 -6 -7 -7 -7 -7 -5 -5
-3 -4 -4 -4 -5 -5 -5 -5 -5 -5 -5 -6 -7 -8 -9 -10 -7 -7 -8 -7 -7 -7 -7 -7 -7 -6 -6

GFSFLT2_850_temp_066.txt.gz
Temp
5 5 4 3 3 3 3 4 3 3 3 3 2 2 2 3 4 4 5 5 5 5 5 4 4 5 4
4 4 3 2 3 2 2 2 2 2 2 2 2 2 2 2 2 3 3 3 3 3 4 4 4 4 4
3 3 2 2 2 1 2 2 2 2 2 2 2 2 2 2 2 2 2 3 3 3 3 3 3 4 3
2 1 0 -0 1 1 1 1 1 1 1 2 1 1 2 1 1 1 1 1 2 2 2 2 3 3 2
0 -0 -1 0 1 0 0 0 0 1 0 1 1 0 1 1 1 1 1 1 1 1 1 1 2 2 2
-0 -1 -0 -0 -0 0 0 0 -0 0 -1 -0 -0 -0 -0 -0 -0 -0 0 0 1 0 0 0 0 0 0
1 1 1 -0 0 -0 -0 0 -1 -0 -1 -1 -1 -1 -1 -1 -1 -1 -1 -0 -1 -1 -1 -1 -1 -1 -1
0 -0 -0 -0 -1 -0 -0 -0 -1 -1 -1 -1 -1 -1 -1 -1 -1 -1 -1 -1 -1 -1 -1 -1 -1 -1 -1
-0 -1 -1 -1 -1 -1 -1 -1 -1 -1 -1 -1 -1 -1 -1 -1 -1 -1 -2 -2 -2 -2 -2 -2 -2 -2 -2
-2 -1 -1 -1 -1 -1 -1 -1 -2 -2 -2 -2 -2 -2 -2 -2 -2 -2 -2 -2 -2 -2 -2 -2 -2 -2 -2
-2 -2 -2 -2 -2 -1 -2 -2 -2 -2 -3 -2 -2 -2 -2 -3 -3 -3 -3 -3 -3 -3 -3 -3 -3 -2 -2
-2 -2 -2 -2 -2 -2 -3 -3 -3 -3 -3 -3 -3 -3 -3 -2 -2 -3 -3 -4 -3 -3 -3 -3 -3 -3 -3
-2 -2 -2 -2 -2 -3 -3 -3 -3 -3 -3 -3 -3 -3 -3 -3 -3 -2 -2 -3 -3 -3 -4 -4 -3 -3 -3
-2 -2 -3 -3 -3 -3 -3 -3 -4 -4 -4 -4 -4 -3 -3 -3 -3 -3 -3 -4 -4 -5 -5 -3 -4 -4 -4
-2 -3 -3 -3 -4 -4 -4 -4 -4 -5 -5 -5 -4 -4 -4 -4 -3 -3 -3 -3 -4 -5 -5 -4 -3 -5 -5
-2 -2 -3 -4 -4 -4 -4 -4 -4 -5 -5 -5 -5 -5 -5 -4 -4 -3 -3 -4 -5 -5 -6 -6 -3 -4 -5
-2 -3 -3 -4 -4 -4 -4 -4 -4 -5 -6 -6 -6 -6 -6 -5 -4 -5 -4 -5 -5 -6 -6 -6 -5 -3 -4

GFSFLT2_850_temp_072.txt.gz
Temp
6 6 6 6 5 5 4 3 3 4 3 3 4 3 2 2 2 2 3 4 5 5 6 6 6 7 6
5 5 4 5 4 4 2 2 2 3 2 3 3 3 2 2 2 2 2 2 3 4 5 5 5 5 5
4 4 4 3 3 2 2 1 1 1 1 1 1 2 2 2 2 2 2 2 2 2 4 5 4 4 4
3 2 2 2 2 1 1 0 0 0 1 1 1 2 1 1 1 1 2 2 2 2 3 3 4 5 4
1 1 1 1 1 -0 0 -0 -0 -0 0 1 1 1 1 1 1 1 2 2 2 2 2 3 3 4 4
0 0 -0 -0 -1 -0 -0 -0 -1 0 1 0 0 0 0 -0 0 0 1 1 2 2 2 2 2 2 2
-1 -1 -1 -1 -0 -0 -1 -1 -0 0 0 0 -0 -0 -1 -0 -0 -0 -0 0 1 1 1 1 1 2 2
-0 -1 -1 -1 -0 -0 -1 -0 -0 -0 -0 -1 -1 -1 -1 -1 -0 -1 -1 -0 0 0 0 0 0 1 0
0 -0 -0 -1 -1 -1 -0 -1 -1 -1 -1 -1 -1 -2 -1 -1 -1 -1 -1 -1 -1 -1 -1 -1 -0 -0 -0
-1 -1 -1 -1 -1 -1 -1 -0 -1 -1 -1 -2 -2 -2 -1 -1 -1 -1 -1 -1 -1 -1 -1 -1 -1 -1 -1
-1 -1 -1 -1 -1 -1 -1 -0 -1 -1 -1 -2 -2 -2 -2 -2 -2 -2 -2 -2 -1 -1 -1 -2 -1 -1 -1
-1 -1 -1 -1 -1 -1 -1 -1 -1 -1 -1 -2 -2 -2 -2 -2 -2 -2 -2 -2 -2 -2 -2 -2 -2 -1 -1
-1 -1 -1 -1 -1 -0 -1 -1 -2 -2 -2 -2 -2 -2 -2 -2 -3 -2 -2 -2 -2 -2 -2 -2 -2 -2 -2
-2 -2 -2 -2 -1 -3 -2 -1 -2 -2 -3 -3 -3 -3 -3 -3 -3 -3 -3 -3 -3 -3 -3 -2 -3 -3 -3
-1 -1 -1 -1 -2 -2 -2 -2 -3 -3 -3 -3 -3 -3 -3 -3 -3 -3 -3 -3 -4 -3 -3 -2 -3 -3 -3
-1 -1 -1 -1 -2 -2 -2 -2 -3 -4 -4 -4 -4 -4 -4 -3 -3 -3 -4 -4 -5 -4 -4 -4 -2 -3 -4
-1 -1 -2 -2 -3 -3 -3 -4 -3 -4 -4 -5 -5 -5 -5 -4 -5 -4 -4 -5 -5 -6 -6 -6 -4 -3 -3

GFSFLT2_850_temp_078.txt.gz
Temp
5 5 6 6 5 5 5 4 4 4 4 4 4 3 4 3 2 2 2 3 4 4 5 6 8 8 8
5 5 5 5 5 4 4 4 3 4 4 3 2 2 2 3 2 2 2 3 4 4 5 5 7 8 7
4 4 4 4 4 4 4 3 3 2 2 1 1 2 1 2 2 2 2 2 3 4 4 5 6 6 6
3 3 3 3 3 3 2 2 2 2 1 0 0 1 1 1 2 2 2 2 2 3 4 4 4 5 5
2 2 2 2 2 2 2 1 1 1 -0 -0 -0 0 1 1 2 2 2 2 2 2 2 3 3 3 4
1 1 1 1 1 1 1 0 -0 -0 -1 -1 -0 -0 0 0 1 1 1 2 2 2 2 2 2 3 3
1 1 0 1 0 0 -0 -1 -1 -0 -0 -1 -1 -0 0 0 0 1 0 1 1 1 1 1 2 2 2
-0 -0 -0 -0 -1 -1 -2 -2 -1 -1 -1 -1 -0 -0 -0 -0 -1 -0 -0 -0 -0 -0 0 1 1 1 2
-1 -1 -1 -2 -2 -2 -2 -1 -1 -1 -0 -1 -1 -1 -1 -1 -1 -1 -0 -1 -0 -0 -0 -0 -0 -0 0
0 0 0 -0 -1 -1 -1 -1 -1 -1 -0 -1 -1 -1 -1 -1 -1 -1 -1 -1 -1 -1 -1 -1 -1 -1 -1
-0 -0 -1 -1 -1 -1 -1 -2 -2 -1 -0 -1 -1 -1 -2 -1 -0 -1 -1 -2 -2 -1 -2 -1 -1 -1 -1
-1 -1 -1 -1 -1 -1 -1 -1 -2 -1 -2 -2 -2 -2 -2 -2 -1 -1 -1 -1 -1 -1 -1 -1 -1 -1 -1
-1 -1 -1 -1 -1 -2 -1 -1 -2 -2 -2 -2 -2 -2 -2 -2 -1 -1 -1 -2 -2 -1 -2 -2 -1 -1 -1
-2 -2 -2 -2 -2 -2 -2 -2 -2 -2 -2 -2 -2 -3 -2 -2 -2 -2 -2 -2 -2 -2 -2 -2 -2 -2 -2
-2 -2 -2 -2 -1 -1 -1 -2 -2 -2 -2 -2 -2 -3 -3 -3 -2 -3 -2 -2 -2 -2 -2 -2 -2 -2 -2
-2 -2 -2 -2 -2 -1 -1 -2 -2 -2 -2 -2 -2 -3 -3 -3 -3 -3 -2 -2 -3 -3 -3 -2 -2 -2 -3
-2 -2 -2 -2 -2 -2 -2 -2 -2 -3 -3 -3 -3 -4 -4 -4 -3 -3 -3 -3 -3 -3 -3 -3 -3 -3 -3

GFSFLT2_850_temp_081.txt.gz
Temp
5 6 5 5 6 6 5 5 5 5 4 4 4 4 4 4 3 3 3 3 3 4 5 6 7 8 9
4 4 4 5 5 5 5 4 4 4 4 4 4 3 3 3 3 3 2 2 3 4 4 5 6 7 9
4 4 4 4 4 4 4 4 4 3 3 3 2 2 1 2 2 2 2 2 2 3 4 5 6 7 7
3 3 3 3 3 3 3 3 3 2 2 2 2 1 1 1 2 2 2 2 2 3 4 4 5 5 6
2 2 2 2 2 2 2 2 2 1 1 1 1 -0 0 1 1 1 2 2 2 2 3 4 4 4 4
2 2 2 2 1 1 1 1 1 1 1 -0 -0 -0 0 1 1 1 1 2 2 2 2 2 4 3 3
1 1 1 1 1 1 1 1 -0 0 -0 -1 -0 -1 0 0 -0 0 1 1 1 1 2 2 2 2 3
1 1 1 1 0 0 -0 -1 -1 -1 -1 -1 -1 -1 -0 -0 -0 0 0 -0 0 1 1 2 2 2 2
0 -0 -1 -1 -1 -1 -1 -2 -2 -1 -1 -1 -1 -1 -1 -1 -1 0 -0 -0 -0 0 0 0 1 1 1
0 0 -0 -1 -2 -3 -2 -2 -2 -2 -1 -2 -1 -1 -1 -1 -1 -1 -0 -0 -0 -0 -0 -0 -0 -0 0
0 0 0 -0 -1 -1 -1 -1 -1 -1 -1 -1 -1 -1 -1 -1 -1 -1 -1 -1 -1 -1 -1 -1 -1 -0 -0
-1 -1 -0 -1 -1 -1 -1 -1 -1 -1 -1 -1 -1 -1 -1 -1 -1 -1 -1 -1 -1 -1 -1 -0 -1 -1 -0
-1 -1 -1 -1 -1 -2 -1 -1 -1 -1 -1 -1 -1 -1 -1 -2 -1 -1 -1 -1 -1 -1 -1 -1 -1 -1 -1
-1 -2 -1 -1 -1 -2 -2 -1 -2 -1 -1 -1 -1 -2 -2 -2 -2 -2 -2 -2 -1 -1 -1 -1 -1 -1 -1
-2 -2 -1 -1 -2 -2 -2 -1 -1 -1 -1 -1 -1 -2 -2 -2 -2 -2 -2 -2 -2 -2 -2 -1 -1 -1 -2
-2 -2 -2 -1 -2 -2 -2 -1 -1 -1 -1 -1 -2 -2 -2 -2 -2 -2 -2 -2 -2 -2 -2 -1 -1 -2 -2
-2 -2 -2 -2 -2 -2 -2 -2 -2 -2 -2 -1 -2 -2 -2 -2 -2 -2 -2 -2 -2 -2 -2 -2 -2 -2 -3

GFSFLT2_850_temp_084.txt.gz
Temp
6 6 6 5 5 5 5 5 5 5 5 5 5 4 5 5 4 4 4 3 3 4 4 5 7 8 9
4 4 4 4 4 5 5 4 4 4 5 5 4 4 4 4 3 3 3 3 3 3 4 5 6 7 8
4 4 3 3 3 4 4 4 4 4 4 4 3 3 3 3 2 2 2 2 2 3 4 5 6 6 8
4 3 3 3 3 3 3 3 3 3 3 2 2 2 3 1 1 2 2 2 2 2 3 4 4 6 7
2 2 2 2 3 3 2 2 2 2 2 2 1 2 1 0 1 1 2 2 2 2 3 4 4 5 5
1 1 2 2 2 2 2 1 1 1 1 1 1 -0 -0 0 0 1 1 2 2 2 2 3 4 4 4
1 1 1 1 1 1 1 1 1 1 0 -0 -1 -1 -0 -1 -0 1 1 1 2 2 2 2 3 3 3
0 1 1 1 1 1 0 0 0 -0 -1 -1 -1 -1 -1 -1 -1 0 0 0 0 2 2 2 2 2 3
1 1 1 0 0 0 0 -0 -1 -2 -2 -2 -1 -1 -1 -1 -1 0 0 -0 -1 -0 0 1 1 2 2
-0 -0 -0 -1 -1 -1 -1 -1 -2 -3 -1 -1 -1 -1 -1 -0 -1 -1 -0 -0 -1 -1 -1 -0 0 1 1
-1 -0 0 0 -0 -1 -2 -2 -2 -2 -0 -0 -0 -1 -1 -1 -1 -1 -1 -1 -1 -1 -1 -1 -1 -0 0
-1 -0 0 0 -0 0 -1 -3 -1 -2 -2 -1 -1 -0 0 0 -0 -0 -1 -1 -1 -1 -1 -1 -1 -1 -0
-1 -0 -0 -0 -0 -2 -2 -1 -1 -1 -1 -1 -1 -0 -0 -1 -0 -0 -0 -0 -1 -1 -1 -1 -1 -1 -1
-1 -2 -2 -1 -1 -2 -1 -1 -2 -1 -1 -0 -0 -1 -1 -1 -1 -1 -1 -1 -1 -1 -1 -1 -1 -1 -1
-2 -2 -2 -2 -2 -2 -2 -2 -1 -1 -0 -0 -0 -1 -1 -1 -1 -1 -1 -1 -1 -1 -1 -1 -1 -1 -1
-2 -2 -1 -2 -2 -2 -2 -1 -1 -1 -1 -1 -1 -1 -1 -1 -1 -2 -1 -1 -1 -2 -2 -1 -1 -2 -2
-2 -2 -2 -2 -3 -2 -2 -2 -2 -2 -2 -1 -1 -1 -2 -1 -1 -1 -1 -2 -2 -2 -2 -2 -2 -2 -2